N7QNM-13 Weather Reports


Display with metric or nautical units.
time (UTC)temp
F
wind
direction
speed
MPH
gust
MPH
rain 1hr
in
rain 24hr
in
rain mn
in
humidity
%
barometer
mb
20220526103531 52 0.0 0.0 0.00 0.00 0.00 81 1012.1
20220526102529 52 0.0 0.0 0.00 0.00 0.00 80 1012.1
20220526101526 53 0.0 0.0 0.00 0.00 0.00 80 1012.1
20220526100522 54 180 2.0 3.0 0.00 0.00 0.00 69 1012.2
20220526095527 52 0.0 0.0 0.00 0.00 0.00 79 1012.1
20220526094536 53 0.0 0.0 0.00 0.00 0.00 78 1012.1
20220526093526 54 0.0 0.0 0.00 0.00 0.00 78 1012.1
20220526092526 54 348 1.0 3.0 0.00 0.00 0.00 74 1012.2
20220526091529 55 181 2.0 3.0 0.00 0.00 0.00 70 1012.1
20220526090527 55 187 2.0 3.0 0.00 0.00 0.00 72 1012.1
20220526085527 55 203 1.0 2.0 0.00 0.00 0.00 73 1012.2
20220526084522 55 203 0.0 2.0 0.00 0.00 0.00 78 1012.2
20220526083529 55 121 3.0 3.0 0.00 0.00 0.00 78 1012.2
20220526082537 56 357 1.0 3.0 0.00 0.00 0.00 69 1012.3
20220526081527 56 0.0 0.0 0.00 0.00 0.00 72 1012.2
20220526080526 57 180 0.0 1.0 0.00 0.00 0.00 71 1012.3
20220526075522 59 132 3.0 3.0 0.00 0.00 0.00 63 1012.4
20220526074527 59 180 2.0 3.0 0.00 0.00 0.00 62 1012.4
20220526073529 61 186 3.0 4.0 0.00 0.00 0.00 58 1012.4
20220526072526 60 188 3.0 4.0 0.00 0.00 0.00 59 1012.4
20220526071521 57 124 2.0 3.0 0.00 0.00 0.00 67 1012.3
20220526070526 58 113 0.0 2.0 0.00 0.00 0.00 69 1012.3
20220526065538 59 60 2.0 3.0 0.00 0.00 0.00 67 1012.3
20220526064534 60 193 0.0 2.0 0.00 0.00 0.00 62 1012.3
20220526063531 59 244 2.0 3.0 0.00 0.00 0.00 65 1012.3
20220526062529 61 263 2.0 3.0 0.00 0.00 0.00 62 1012.3
20220526061528 61 167 2.0 4.0 0.00 0.00 0.00 59 1012.3
20220526060521 62 89 3.0 3.0 0.00 0.00 0.00 60 1012.4
20220526055523 64 173 1.0 2.0 0.00 0.00 0.00 54 1012.4
20220526054526 65 195 3.0 4.0 0.00 0.00 0.00 51 1012.5
20220526053536 66 203 3.0 4.0 0.00 0.00 0.00 51 1012.5
20220526052520 66 216 4.0 6.0 0.00 0.00 0.00 51 1012.6
20220526051535 65 237 3.0 4.0 0.00 0.00 0.00 52 1012.5
20220526050526 65 249 3.0 5.0 0.00 0.00 0.00 53 1012.5
20220526045529 65 257 2.0 3.0 0.00 0.00 0.00 53 1012.3
20220526044527 66 264 3.0 5.0 0.00 0.00 0.00 52 1012.2
20220526043532 66 241 3.0 5.0 0.00 0.00 0.00 52 1012.2
20220526042525 66 242 3.0 4.0 0.00 0.00 0.00 54 1012.2
20220526041527 68 211 2.0 4.0 0.00 0.00 0.00 50 1012.2
20220526040537 68 225 3.0 4.0 0.00 0.00 0.00 49 1012.1
20220526035533 69 251 4.0 5.0 0.00 0.00 0.00 48 1012.0
20220526034526 69 227 4.0 5.0 0.00 0.00 0.00 47 1011.9
20220526033528 70 236 3.0 5.0 0.00 0.00 0.00 47 1012.0
20220526032526 70 222 3.0 4.0 0.00 0.00 0.00 46 1011.9
20220526031527 71 263 3.0 5.0 0.00 0.00 0.00 45 1012.0
20220526030525 71 235 4.0 6.0 0.00 0.00 0.00 45 1011.9
20220526025533 72 238 3.0 4.0 0.00 0.00 0.00 46 1011.7
20220526024536 73 254 3.0 4.0 0.00 0.00 0.00 45 1011.7
20220526023528 73 238 3.0 4.0 0.00 0.00 0.00 44 1011.6
20220526022525 74 247 4.0 5.0 0.00 0.00 0.00 43 1011.6
20220526021529 74 267 5.0 6.0 0.00 0.00 0.00 43 1011.6
20220526020529 75 266 4.0 5.0 0.00 0.00 0.00 41 1011.7
20220526015527 75 248 4.0 5.0 0.00 0.00 0.00 41 1011.7
20220526014523 76 250 5.0 7.0 0.00 0.00 0.00 39 1011.7
20220526013522 76 264 5.0 7.0 0.00 0.00 0.00 39 1011.7
20220526012523 76 264 5.0 7.0 0.00 0.00 0.00 40 1011.7
20220526011530 76 266 3.0 4.0 0.00 0.00 0.00 41 1011.8
20220526010527 76 283 4.0 6.0 0.00 0.00 0.00 42 1011.9
20220526005530 76 278 4.0 5.0 0.00 0.00 0.00 42 1011.8
20220526004528 77 268 5.0 8.0 0.00 0.00 0.00 40 1012.0
20220526003526 78 271 4.0 6.0 0.00 0.00 0.00 40 1012.0
20220526002527 78 279 2.0 8.0 0.00 0.00 0.00 40 1012.1
20220526001521 78 313 4.0 7.0 0.00 0.00 0.00 39 1012.1
20220526000522 78 32 3.0 5.0 0.00 0.00 0.00 39 1012.0
20220525235527 78 304 2.0 4.0 0.00 0.00 0.00 39 1012.2
20220525234525 79 16 3.0 5.0 0.00 0.00 0.00 39 1012.2
20220525233522 77 294 5.0 7.0 0.00 0.00 0.00 40 1012.2
20220525232530 78 303 6.0 10.0 0.00 0.00 0.00 40 1012.3
20220525231528 78 4 5.0 7.0 0.00 0.00 0.00 40 1012.3
20220525230525 79 300 7.0 9.0 0.00 0.00 0.00 40 1012.5
20220525225522 78 318 4.0 5.0 0.00 0.00 0.00 42 1012.6
20220525224529 79 242 4.0 9.0 0.00 0.00 0.00 40 1012.6
20220525223529 77 57 5.0 10.0 0.00 0.00 0.00 42 1012.6
20220525222528 75 305 4.0 8.0 0.00 0.00 0.00 43 1012.7
20220525221523 78 294 7.0 10.0 0.00 0.00 0.00 40 1012.8
20220525220526 78 287 5.0 6.0 0.00 0.00 0.00 41 1012.9
20220525215527 79 303 6.0 8.0 0.00 0.00 0.00 42 1013.1
20220525214526 77 290 6.0 9.0 0.00 0.00 0.00 43 1013.1
20220525213523 77 311 7.0 9.0 0.00 0.00 0.00 43 1013.2
20220525212521 76 287 4.0 6.0 0.00 0.00 0.00 42 1013.3
20220525211526 76 98 3.0 4.0 0.00 0.00 0.00 44 1013.3
20220525210526 76 110 3.0 6.0 0.00 0.00 0.00 42 1013.2
20220525205522 76 20 6.0 8.0 0.00 0.00 0.00 44 1013.4
20220525204530 76 331 5.0 8.0 0.00 0.00 0.00 43 1013.5
20220525203528 76 315 4.0 7.0 0.00 0.00 0.00 43 1013.6
20220525202531 78 263 4.0 5.0 0.00 0.00 0.00 43 1013.7
20220525201521 74 285 4.0 5.0 0.00 0.00 0.00 47 1013.8
20220525200522 77 54 5.0 7.0 0.00 0.00 0.00 43 1014.1
20220525195526 76 343 5.0 8.0 0.00 0.00 0.00 45 1014.0
20220525194524 77 357 7.0 11.0 0.00 0.00 0.00 44 1014.1
20220525193521 74 293 3.0 7.0 0.00 0.00 0.00 48 1014.2
20220525192521 74 333 4.0 11.0 0.00 0.00 0.00 50 1014.2
20220525191529 74 303 5.0 6.0 0.00 0.00 0.00 51 1014.2
20220525190527 73 286 3.0 4.0 0.00 0.00 0.00 51 1014.3
20220525185527 72 321 4.0 5.0 0.00 0.00 0.00 52 1014.3
20220525184522 72 307 4.0 7.0 0.00 0.00 0.00 51 1014.2
20220525183521 71 256 3.0 5.0 0.00 0.00 0.00 52 1014.3
20220525182525 72 97 4.0 5.0 0.00 0.00 0.00 52 1014.2
20220525181526 72 227 4.0 6.0 0.00 0.00 0.00 52 1014.5
20220525180525 72 341 3.0 6.0 0.00 0.00 0.00 52 1014.4
20220525175535 73 0 4.0 6.0 0.00 0.00 0.00 51 1014.6
20220525174535 71 1 5.0 6.0 0.00 0.00 0.00 55 1014.6
20220525173526 70 37 4.0 7.0 0.00 0.00 0.00 55 1014.5
20220525172527 70 348 5.0 6.0 0.00 0.00 0.00 56 1014.5
20220525171521 71 306 3.0 5.0 0.00 0.00 0.00 56 1014.7
20220525170525 68 360 3.0 6.0 0.00 0.00 0.00 59 1014.6
20220525165535 68 324 4.0 6.0 0.00 0.00 0.00 62 1014.5
20220525164537 68 359 4.0 8.0 0.00 0.00 0.00 60 1014.6
20220525163523 68 84 4.0 6.0 0.00 0.00 0.00 61 1014.7
20220525162520 68 29 4.0 5.0 0.00 0.00 0.00 59 1014.8
20220525161534 67 20 4.0 5.0 0.00 0.00 0.00 63 1014.9
20220525160528 66 38 3.0 5.0 0.00 0.00 0.00 63 1015.0
20220525155532 64 31 3.0 5.0 0.00 0.00 0.00 66 1014.8
20220525154526 63 35 2.0 4.0 0.00 0.00 0.00 68 1014.7
20220525153526 62 72 2.0 3.0 0.00 0.00 0.00 70 1014.7
20220525152530 62 96 2.0 4.0 0.00 0.00 0.00 72 1014.8
20220525151534 61 59 2.0 3.0 0.00 0.00 0.00 74 1014.7
20220525150525 61 27 2.0 4.0 0.00 0.00 0.00 75 1014.7
20220525145530 60 317 1.0 3.0 0.00 0.00 0.00 78 1014.4
20220525144536 60 332 1.0 3.0 0.00 0.00 0.00 78 1014.3
20220525143529 59 0.0 0.0 0.00 0.00 0.00 79 1014.3
20220525142525 58 0.0 0.0 0.00 0.00 0.00 79 1014.2
20220525141533 57 0.0 0.0 0.00 0.00 0.00 81 1014.3
20220525140524 57 23 1.0 2.0 0.00 0.00 0.00 82 1014.3
20220525135534 56 105 2.0 3.0 0.00 0.00 0.00 80 1014.3
20220525134535 55 109 1.0 3.0 0.00 0.00 0.00 81 1014.2
20220525133530 54 113 1.0 2.0 0.00 0.00 0.00 83 1014.2
20220525132529 54 37 1.0 2.0 0.00 0.00 0.00 83 1014.1
20220525131525 54 116 1.0 2.0 0.00 0.00 0.00 84 1014.0
20220525130525 54 105 1.0 2.0 0.00 0.00 0.00 84 1013.9
20220525125526 54 15 2.0 3.0 0.00 0.00 0.00 84 1013.8
20220525124543 54 177 2.0 4.0 0.00 0.00 0.00 83 1013.7
20220525123530 54 137 2.0 3.0 0.00 0.00 0.00 83 1013.7
20220525122525 56 127 2.0 4.0 0.00 0.00 0.00 81 1013.7
20220525121529 53 180 1.0 3.0 0.00 0.00 0.00 85 1013.6
20220525120529 53 0.0 0.0 0.00 0.00 0.00 84 1013.5
20220525115526 53 333 1.0 3.0 0.00 0.00 0.00 84 1013.5
20220525114522 53 180 0.0 1.0 0.00 0.00 0.00 82 1013.4
20220525113529 54 135 0.0 2.0 0.00 0.00 0.00 79 1013.5
20220525112525 55 177 3.0 3.0 0.00 0.00 0.00 78 1013.5
20220525111525 55 191 1.0 3.0 0.00 0.00 0.00 78 1013.6
20220525110525 55 203 2.0 3.0 0.00 0.00 0.00 78 1013.6
20220525105530 54 240 2.0 3.0 0.00 0.00 0.00 80 1013.7
20220525104530 53 243 2.0 6.0 0.00 0.00 0.00 80 1013.6